User: anonymous   Login
Location: Unspecified
(0.0000°N, 0.0000°E)
Time: 03:01:19
(UTC+01:00)
Language:

CZ-4 R/B - Orbit

View from above orbital plane
View from above orbital plane
View from above satellite
View from above satellite

Ground track
Ground track

The orbit data is extracted from the following two-line orbital elements,

1 28059U 03049C   18053.70268656 -.00000040 +00000-0 +22152-5 0  9999
2 28059 098.5337 309.2082 0049654 201.6853 173.9909 14.52517638760056
Epoch (UTC): 22 February 2018 16:51:52
Eccentricity: 0.0049654
inclination: 98.5337°
perigee height: 682 km
apogee height: 752 km
right ascension of ascending node: 309.2082°
argument of perigee: 201.6853°
revolutions per day: 14.52517638
mean anomaly at epoch: 173.9909°
orbit number at epoch: 76005

The dashed part of the orbit path shows where the satellite is in the earth's shadow,  

DLR